Location: Observatory
(52.1446°N, 0.4624°W)
Time: 17:12:13
(UTC+00:00)

ISS - Pass Details

Date: 04 December 2021
Orbit: 417 x 422 km, 51.6° (Epoch: 06 December)

Event Time Altitude Azimuth Distance (km) Brightness Sun altitude
Rises 16:55:42 0° 279° (W) 2,379 1.1 -9.3°
Reaches altitude 10° 16:57:49 10° 276° (W) 1,513 0.1 -9.6°
Maximum altitude 17:01:11 63° 195° (SSW) 478 -3.3 -10.1°
Drops below altitude 10° 17:04:32 10° 114° (ESE) 1,508 -1.3 -10.5°
Enters shadow 17:04:59 - 113° (ESE) 1,693 -1.1 -10.6°
